Weather History for KAXA - January, 2013

Change the Weather History Date:

Monday, January 21, 2013

  Actual Average Record
Temperature  
Mean Temperature 0 °F -  
Max Temperature 6 °F 23 °F 46 °F (2002)
Min Temperature -7 °F 8 °F -14 °F (2012)
Degree Days  
Heating Degree Days 66    
Moisture  
Dew Point -11 °F    
Average Humidity 64    
Maximum Humidity 78    
Minimum Humidity 55    
Precipitation  
Precipitation 0.00 in - - ()
Sea Level Pressure  
Sea Level Pressure 30.30 in    
Wind  
Wind Speed 14 mph (WNW)    
Max Wind Speed 20 mph    
Max Gust Speed 29 mph    
Visibility 10 miles    
Events Snow    
Averages and records for this station are not official NWS values.
T = Trace of Precipitation, MM = Missing Value Source: NWS Daily Summary

Daily Weather History Graph

Daily Weather History Graph

Search for Another Location

Airport or City:

Trip Planner

Search our weather history database for the weather conditions in past years. The results will help you decide how hot, cold, wet, or windy it might be!

Date:

Astronomy

Jan. 21, 2013 Rise Set
Actual Time 7:41 AM CST 5:15 PM CST
Civil Twilight 7:10 AM CST 5:46 PM CST
Nautical Twilight 6:36 AM CST 6:21 PM CST
Astronomical Twilight 6:02 AM CST 6:55 PM CST
Moon 12:55 PM CST (1/21) 3:11 AM CST (1/21)
Length of Visible Light 10h 35m
Length of Day
9h 33m
Waxing Gibbous, 75% of the Moon is Illuminated
Jan 21
Waxing Gibbous
Jan 26
Full
Feb 3
Last Quarter
Feb 10
New
Feb 17
First Quarter

Hourly Weather History & Observations

Time (CST) Temp. Windchill Dew Point Humidity Pressure Visibility Wind Dir Wind Speed Gust Speed Precip Events Conditions
12:15 AM 3.2 °F -15.3 °F -7.6 °F 61% 30.28 in 10.0 mi NW 15.0 mph 23.0 mph N/A   Overcast
12:35 AM 3.2 °F -16.5 °F -5.8 °F 66% 30.28 in 10.0 mi NNW 17.3 mph 24.2 mph N/A   Overcast
12:55 AM 1.4 °F -18.8 °F -5.8 °F 72% 30.28 in 10.0 mi NNW 17.3 mph 25.3 mph N/A   Overcast
1:15 AM 1.4 °F -16.9 °F -9.4 °F 61% 30.28 in 10.0 mi NNW 13.8 mph 24.2 mph N/A Snow Light Snow
1:35 AM 1.4 °F -18.2 °F -7.6 °F 66% 30.28 in 10.0 mi NNW 16.1 mph - N/A   Mostly Cloudy
1:55 AM 1.4 °F -16.9 °F -7.6 °F 66% 30.29 in 10.0 mi NNW 13.8 mph - N/A   Overcast
2:15 AM -0.4 °F -19.2 °F -7.6 °F 72% 30.29 in 9.0 mi NNW 13.8 mph - N/A   Overcast
2:35 AM -0.4 °F -16.7 °F -7.6 °F 72% 30.30 in 7.0 mi NNW 10.4 mph - N/A Snow Light Snow
2:55 AM -0.4 °F -21.2 °F -9.4 °F 66% 30.30 in 9.0 mi NW 17.3 mph 27.6 mph N/A Snow Light Snow
3:15 AM -2.2 °F -22.9 °F -9.4 °F 71% 30.31 in 4.0 mi NW 16.1 mph - N/A   Light Freezing Rain
3:35 AM -2.2 °F -22.2 °F -9.4 °F 71% 30.30 in 9.0 mi NW 15.0 mph 21.9 mph N/A   Overcast
3:55 AM -2.2 °F -24.1 °F -14.8 °F 55% 30.30 in 10.0 mi NW 18.4 mph 25.3 mph N/A Snow Light Snow
4:15 AM -4.0 °F -25.8 °F -13.0 °F 65% 30.31 in 10.0 mi NW 17.3 mph 24.2 mph N/A   Overcast
4:35 AM -5.8 °F -28.8 °F -16.6 °F 60% 30.32 in 9.0 mi NW 18.4 mph 28.8 mph N/A Snow Light Snow
4:55 AM -5.8 °F -29.4 °F -18.4 °F 55% 30.33 in 10.0 mi NW 19.6 mph 27.6 mph N/A Snow Light Snow
5:15 AM -7.6 °F -28.3 °F -16.6 °F 65% 30.32 in 10.0 mi NW 13.8 mph 20.7 mph N/A   Mostly Cloudy
5:35 AM -7.6 °F -28.3 °F -16.6 °F 65% 30.31 in 10.0 mi NW 13.8 mph 20.7 mph N/A   Mostly Cloudy
5:55 AM -7.6 °F -27.5 °F -16.6 °F 65% 30.31 in 10.0 mi NNW 12.7 mph 20.7 mph N/A   Mostly Cloudy
6:15 AM -7.6 °F -24.6 °F -18.4 °F 59% 30.32 in 10.0 mi NW 9.2 mph 16.1 mph N/A   Mostly Cloudy
6:35 AM -7.6 °F -27.5 °F -18.4 °F 59% 30.32 in 10.0 mi NW 12.7 mph 18.4 mph N/A   Partly Cloudy
6:55 AM -7.6 °F -25.7 °F -18.4 °F 59% 30.32 in 10.0 mi NW 10.4 mph 16.1 mph N/A   Clear
7:15 AM -7.6 °F -29.1 °F -18.4 °F 59% 30.32 in 10.0 mi NW 15.0 mph - N/A   Scattered Clouds
7:35 AM -7.6 °F -25.7 °F -18.4 °F 59% 30.32 in 10.0 mi NW 10.4 mph - N/A   Overcast
7:55 AM -7.6 °F -25.7 °F -18.4 °F 59% 30.32 in 10.0 mi NW 10.4 mph - N/A   Overcast
8:15 AM -7.6 °F -22.1 °F -16.6 °F 65% 30.33 in 10.0 mi NW 6.9 mph - N/A   Overcast
8:35 AM -7.6 °F -20.6 °F -16.6 °F 65% 30.33 in 10.0 mi NW 5.8 mph - N/A   Overcast
8:55 AM -5.8 °F -21.2 °F -16.6 °F 60% 30.33 in 10.0 mi NW 8.1 mph - N/A   Mostly Cloudy
9:15 AM -5.8 °F -25.2 °F -16.6 °F 60% 30.34 in 10.0 mi NW 12.7 mph - N/A   Mostly Cloudy
9:35 AM -4.0 °F -23.7 °F -14.8 °F 60% 30.34 in 10.0 mi NW 13.8 mph - N/A   Scattered Clouds
9:55 AM -4.0 °F -23.7 °F -14.8 °F 60% 30.35 in 10.0 mi NW 13.8 mph - N/A   Mostly Cloudy
10:35 AM -2.2 °F -21.5 °F -14.8 °F 55% 30.36 in 10.0 mi NW 13.8 mph - N/A   Scattered Clouds
10:55 AM -2.2 °F -21.5 °F -13.0 °F 60% 30.36 in 10.0 mi WNW 13.8 mph - N/A   Partly Cloudy
11:15 AM -0.4 °F -19.9 °F -13.0 °F 55% 30.35 in 10.0 mi NW 15.0 mph - N/A   Partly Cloudy
11:35 AM -0.4 °F -20.5 °F -11.2 °F 60% 30.34 in 10.0 mi NW 16.1 mph - N/A   Scattered Clouds
11:55 AM 1.4 °F -18.8 °F -11.2 °F 56% 30.33 in 10.0 mi NW 17.3 mph 23.0 mph N/A Snow Light Snow
12:15 PM 1.4 °F -19.4 °F -9.4 °F 61% 30.31 in 10.0 mi NW 18.4 mph - N/A Snow Light Snow
12:35 PM 1.4 °F -18.8 °F -9.4 °F 61% 30.30 in 10.0 mi NW 17.3 mph - N/A   Mostly Cloudy
12:55 PM 3.2 °F -14.6 °F -7.6 °F 61% 30.29 in 10.0 mi WNW 13.8 mph 24.2 mph N/A   Scattered Clouds
1:15 PM 3.2 °F -17.1 °F -7.6 °F 61% 30.28 in 10.0 mi WNW 18.4 mph 25.3 mph N/A Snow Light Snow
1:35 PM 3.2 °F -15.3 °F -7.6 °F 61% 30.28 in 10.0 mi NW 15.0 mph 25.3 mph N/A   Partly Cloudy
1:55 PM 5.0 °F -13.0 °F -5.8 °F 61% 30.27 in 10.0 mi WNW 15.0 mph 21.9 mph N/A   Partly Cloudy
2:15 PM 5.0 °F -14.2 °F -5.8 °F 61% 30.27 in 10.0 mi West 17.3 mph - N/A   Mostly Cloudy
2:35 PM 5.0 °F -14.2 °F -7.6 °F 56% 30.27 in 10.0 mi WNW 17.3 mph 23.0 mph N/A   Mostly Cloudy
2:55 PM 6.8 °F -12.4 °F -5.8 °F 56% 30.28 in 10.0 mi WNW 18.4 mph - N/A   Mostly Cloudy
3:15 PM 6.8 °F -12.4 °F -5.8 °F 56% 30.28 in 10.0 mi WNW 18.4 mph 24.2 mph N/A Snow Light Snow
3:35 PM 6.8 °F -11.8 °F -5.8 °F 56% 30.28 in 10.0 mi WNW 17.3 mph - N/A Snow Light Snow
3:55 PM 6.8 °F -11.8 °F -5.8 °F 56% 30.28 in 10.0 mi West 17.3 mph - N/A   Mostly Cloudy
4:15 PM 6.8 °F -11.3 °F -5.8 °F 56% 30.27 in 10.0 mi WNW 16.1 mph 21.9 mph N/A   Overcast
4:35 PM 3.2 °F -15.9 °F -4.0 °F 72% 30.27 in 10.0 mi West 16.1 mph - N/A   Overcast
4:55 PM 3.2 °F -17.1 °F -5.8 °F 66% 30.27 in 10.0 mi West 18.4 mph - N/A   Overcast
5:15 PM 3.2 °F -15.3 °F -5.8 °F 66% 30.27 in 10.0 mi West 15.0 mph - N/A Snow Light Snow
5:35 PM 3.2 °F -15.3 °F -5.8 °F 66% 30.27 in 10.0 mi West 15.0 mph 21.9 mph N/A   Overcast
5:55 PM 1.4 °F -17.6 °F -5.8 °F 72% 30.27 in 10.0 mi West 15.0 mph - N/A   Overcast
6:15 PM 1.4 °F -16.9 °F -7.6 °F 66% 30.27 in 10.0 mi West 13.8 mph - N/A   Overcast
6:35 PM 1.4 °F -17.6 °F -7.6 °F 66% 30.28 in 10.0 mi West 15.0 mph - N/A   Mostly Cloudy
6:55 PM 1.4 °F -18.2 °F -7.6 °F 66% 30.28 in 10.0 mi West 16.1 mph - N/A   Mostly Cloudy
7:15 PM -0.4 °F -19.9 °F -7.6 °F 72% 30.28 in 10.0 mi West 15.0 mph - N/A   Partly Cloudy
7:35 PM -0.4 °F -18.4 °F -7.6 °F 72% 30.28 in 10.0 mi West 12.7 mph - N/A   Clear
7:55 PM -0.4 °F -18.4 °F -7.6 °F 72% 30.28 in 10.0 mi West 12.7 mph - N/A   Clear
8:15 PM -0.4 °F -17.6 °F -7.6 °F 72% 30.28 in 10.0 mi West 11.5 mph - N/A   Clear
8:35 PM -0.4 °F -17.6 °F -7.6 °F 72% 30.28 in 10.0 mi WNW 11.5 mph 17.3 mph N/A   Clear
8:55 PM -2.2 °F -18.0 °F -9.4 °F 71% 30.28 in 10.0 mi West 9.2 mph - N/A   Clear
9:15 PM -2.2 °F -18.9 °F -9.4 °F 71% 30.29 in 10.0 mi West 10.4 mph - N/A   Clear
9:35 PM -2.2 °F -16.8 °F -9.4 °F 71% 30.29 in 10.0 mi West 8.1 mph - N/A   Clear
9:55 PM -2.2 °F -16.8 °F -9.4 °F 71% 30.29 in 10.0 mi West 8.1 mph - N/A   Clear
10:15 PM -4.0 °F -19.0 °F -9.4 °F 78% 30.29 in 10.0 mi West 8.1 mph - N/A   Clear
10:35 PM -4.0 °F -19.0 °F -11.2 °F 71% 30.29 in 10.0 mi West 8.1 mph - N/A Snow Light Snow
10:55 PM -4.0 °F -19.0 °F -11.2 °F 71% 30.29 in 10.0 mi West 8.1 mph - N/A   Clear
11:15 PM -4.0 °F -20.2 °F -11.2 °F 71% 30.29 in 10.0 mi West 9.2 mph - N/A   Clear
11:35 PM -4.0 °F -19.0 °F -11.2 °F 71% 30.30 in 10.0 mi WSW 8.1 mph - N/A   Clear
11:55 PM -4.0 °F -20.2 °F -9.4 °F 78% 30.29 in 10.0 mi WSW 9.2 mph - N/A   Clear